Starlink 30317

operational
NORAD ID: 57675 Int'l Des: 2023-124 Owner: SPXS Country: US Constellation: starlink
LEOCIRCULAR

关于 Starlink 30317

正在加载描述...

实时位置

正在加载3D地球...

即将过境

高度历史

Altitude vs Time

uPlot chart will show altitude changes over time

两行轨道根数

1 57675U 23124N 25260.25009259 .00154763 00000-0 26559-2 0 9994
2 57675 53.1515 287.9218 0015159 33.3370 88.8376 15.50036071 5798
Epoch: Sep 17, 2025 • Age: 19 hours

当前状态

高度 420.1 km
速度 7.66 km/s
星下点 34.13°N, 67.26°E
发射日期 Aug 22, 2023
运行时间 2 years
类型 internet

技术详情

分类 Payload
质量 730.00 kg
干质量 700.00 kg
总质量 730.00 kg
长度 0.30 m
直径 4.10 m
跨度 29.00 m
形状 Box + pan
制造商 SPXS
平台类型 Starlink V2M
阶段状态 In Orbit
所有者/国家 SPXS/US

大型星座

Loading constellations...